Regional Weather Roundup
Issued by NWS

Home | Current Version | Previous Version | Graphics & Text | Print | Product List | Glossary On
Versions: 1 2 3 4 5 6 7 8 9 10 11 12 13 14 15 16 17 18 19 20 21 22 23 24 25 26 27 28 29 30 31 32 33 34 35 36 37 38 39 40 41 42 43 44 45 46 47 48 49 50
000
ASUS45 KABQ 232301
RWRNM
NEW MEXICO REGIONAL WEATHER ROUNDUP
NATIONAL WEATHER SERVICE ALBUQUERQUE NM
400 PM MST MON JAN 23 2017

NOTE: "FAIR" MEANS FEW OR NO CLOUDS BELOW 12,000 FEET AGL WITH NO
       SIGNIFICANT WEATHER OR OBSTRUCTIONS TO VISION.

      THIS PRODUCT IS RELEASED AS TWO VERSIONS.  ONE VERSION NEAR
      THE TOP OF THE HOUR CONTAINING PRELIMINARY DATA FROM ALBUQUERQUE
      AND OTHER STATIONS.  A FINAL VERSION WITH ADDITIONAL DATA IS
      ISSUED ABOUT 10 MINUTES AFTER THE HOUR.

NMZ501-503-504-510>518-240000-
NORTHWEST PLATEAU/NORTHCENTRAL MOUNTAINS

CITY           SKY/WX    TMP DP  RH WIND       PRES   REMARKS
FARMINGTON     LGT RAIN  41  36  82 SW15G29   29.68R
LOS ALAMOS     CLOUDY    46  24  41 S17G25    29.70F
SANTA FE       CLOUDY    52  27  38 SW20G31   29.69F
TAOS           PTSUNNY   43  25  49 SW21      29.69F
ANGEL FIRE     LGT SNOW  34  27  75 S21G29    29.71F WCI  23

$$
NMZ402-403-502-505>509-240000-
WESTCENTRAL MOUNTAINS/SOUTHWEST MOUNTAINS

CITY           SKY/WX    TMP DP  RH WIND       PRES   REMARKS
GALLUP         LGT RAIN  42  31  64 SW23G32   29.71F
GRANTS         FAIR      47  25  40 SW17G37   29.76S
SILVER CITY    FAIR      58  31  35 SW17G29   29.83F

$$
NMZ407-409-411-412-240000-
SOUTHERN DESERTS

CITY           SKY/WX    TMP DP  RH WIND       PRES   REMARKS
DEMING         FAIR      65  30  27 SW29G36   29.81F
LAS CRUCES     FAIR      64  26  23 SW17      29.84F
ALAMOGORDO     FAIR      63  32  31 SW15G22   29.83F
T OR C         FAIR      60  31  33 S21G32    29.77F

$$
NMZ519>523-240000-
CENTRAL VALLEYS/CENTRAL HIGHLANDS

CITY           SKY/WX    TMP DP  RH WIND       PRES   REMARKS
ALBUQUERQUE    FAIR      60  19  20 SW30G39   29.70F
MORIARTY ARPT  FAIR      55  22  28 SW25G31   29.74F
CLINES CORNERS FAIR      48  26  42 SW31G43   29.75F
BELEN          FAIR      60  19  20 SW36G43   29.72F
SOCORRO        FAIR      61  19  20 SW22      29.74F

$$
NMZ524>526-539-540-240000-
SOUTHCENTRAL MOUNTAINS

CITY           SKY/WX    TMP DP  RH WIND       PRES   REMARKS
RUIDOSO        FAIR      48  25  40 SW33G44   29.81F

$$
NMZ527>531-240000-
NORTHEAST HIGHLANDS/NORTHEAST PLAINS

CITY           SKY/WX    TMP DP  RH WIND       PRES   REMARKS
LAS VEGAS      PTSUNNY   49  25  39 SW25G32   29.71F
RATON          FAIR      50  21  32 SW30G39   29.64F
CLAYTON        FAIR      60  22  23 SW21G35   29.68R

$$
NMZ532>537-240000-
EASTCENTRAL PLAINS

CITY           SKY/WX    TMP DP  RH WIND       PRES   REMARKS
TUCUMCARI      FAIR      67  27  22 SW28G39   29.67F
CANNON AFB     FAIR      67  27  21 SW24G31   29.72F
CLOVIS AIRPORT FAIR      66  30  26 SW17G24   29.72F

$$
NMZ028-029-538-240000-
SOUTHEAST PLAINS

CITY           SKY/WX    TMP DP  RH WIND       PRES   REMARKS
ROSWELL        FAIR      71  29  21 SW23G37   29.71F
ARTESIA        FAIR      70  30  23 SW29G36   29.76F
CARLSBAD       FAIR      72  20  14 W21G32    29.77F
HOBBS          SUNNY     68  19  15 SW17G24   29.80F


$$




USA.gov is the U.S. government's official web portal to all federal, state and local government web resources and services.